Time,TemperatureF,DewpointF,PressureIn,WindDirection,WindDirectionDegrees,WindSpeedMPH,WindSpeedGustMPH,Humidity,HourlyPrecipIn,Conditions,Clouds,dailyrainin,SoftwareType,DateUTC
2014-01-04 00:02:00,41.0,29.0,30.17,SSE,158,3.0,4.0,62,0.00,,,-99.99,,2014-01-04 06:02:00,
2014-01-04 00:12:00,41.0,29.0,30.17,SSE,158,3.0,4.0,62,0.00,,,-99.99,,2014-01-04 06:12:00,
2014-01-04 00:31:00,43.0,33.0,30.14,SSW,208,2.0,10.0,68,0.00,,,-99.99,,2014-01-04 06:31:00,
2014-01-04 00:53:00,43.0,33.0,30.14,SSW,208,2.0,10.0,68,0.00,,,-99.99,,2014-01-04 06:53:00,
2014-01-04 01:02:00,43.0,33.0,30.14,SSW,208,2.0,10.0,68,0.00,,,-99.99,,2014-01-04 07:02:00,
2014-01-04 01:12:00,43.0,33.0,30.14,SSW,208,2.0,10.0,68,0.00,,,-99.99,,2014-01-04 07:12:00,
2014-01-04 01:22:00,43.0,33.0,30.14,SSW,208,2.0,10.0,68,0.00,,,-99.99,,2014-01-04 07:22:00,
2014-01-04 02:22:00,43.0,37.0,30.12,SW,224,3.0,8.0,78,0.00,,,-99.99,,2014-01-04 08:22:00,
2014-01-04 02:52:00,42.0,37.0,30.12,WSW,241,2.0,6.0,82,0.00,,,-99.99,,2014-01-04 08:52:00,
2014-01-04 03:11:00,42.0,38.0,30.12,SSW,203,3.0,8.0,84,0.00,,,-99.99,,2014-01-04 09:11:00,
2014-01-04 03:21:00,42.0,38.0,30.12,SSW,203,3.0,8.0,84,0.00,,,-99.99,,2014-01-04 09:21:00,
2014-01-04 03:53:00,45.0,40.0,30.11,SW,222,9.0,15.0,82,0.00,,,-99.99,,2014-01-04 09:53:00,
2014-01-04 04:23:00,45.0,40.0,30.11,WSW,238,4.0,10.0,82,0.00,,,-99.99,,2014-01-04 10:23:00,
2014-01-04 04:42:00,45.0,40.0,30.11,WSW,238,4.0,10.0,82,0.00,,,-99.99,,2014-01-04 10:42:00,
2014-01-04 04:53:00,45.0,40.0,30.11,WSW,238,4.0,10.0,82,0.00,,,-99.99,,2014-01-04 10:53:00,
2014-01-04 05:02:00,45.0,40.0,30.11,WSW,238,4.0,10.0,82,0.00,,,-99.99,,2014-01-04 11:02:00,
2014-01-04 05:12:00,45.0,40.0,30.11,WSW,238,4.0,10.0,82,0.00,,,-99.99,,2014-01-04 11:12:00,
2014-01-04 05:43:00,46.0,41.0,30.09,SSW,201,6.0,16.0,83,0.00,,,-99.99,,2014-01-04 11:43:00,
2014-01-04 05:52:00,47.0,42.0,30.09,SSW,201,5.0,15.0,82,0.00,,,-99.99,,2014-01-04 11:52:00,
2014-01-04 05:53:00,46.0,41.0,30.09,SSW,201,6.0,16.0,83,0.00,,,-99.99,,2014-01-04 11:53:00,
2014-01-04 06:02:00,46.0,41.0,30.09,SSW,201,6.0,16.0,83,0.00,,,-99.99,,2014-01-04 12:02:00,
2014-01-04 06:22:00,47.0,42.0,30.09,SSW,201,5.0,15.0,82,0.00,,,-99.99,,2014-01-04 12:22:00,
2014-01-04 06:32:00,47.0,42.0,30.09,SSW,201,5.0,15.0,82,0.00,,,-99.99,,2014-01-04 12:32:00,
2014-01-04 07:11:00,48.0,42.0,30.07,SW,232,12.0,18.0,81,0.00,,,-99.99,,2014-01-04 13:11:00,
2014-01-04 07:22:00,48.0,42.0,30.07,SW,232,12.0,18.0,81,0.00,,,-99.99,,2014-01-04 13:22:00,
2014-01-04 07:52:00,48.0,43.0,30.08,SW,218,12.0,12.0,82,0.00,,,-99.99,,2014-01-04 13:52:00,
2014-01-04 08:02:00,48.0,43.0,30.08,SW,218,12.0,12.0,82,0.00,,,-99.99,,2014-01-04 14:02:00,
2014-01-04 08:22:00,48.0,43.0,30.08,SW,235,4.0,10.0,83,0.00,,,-99.99,,2014-01-04 14:22:00,
2014-01-04 08:53:00,49.0,43.0,30.08,SW,222,4.0,12.0,80,0.00,,,-99.99,,2014-01-04 14:53:00,
2014-01-04 09:22:00,52.0,45.0,30.09,SW,220,6.0,13.0,77,0.00,,,-99.99,,2014-01-04 15:22:00,
2014-01-04 09:43:00,53.0,45.0,30.08,WSW,253,7.0,18.0,75,0.00,,,-99.99,,2014-01-04 15:43:00,
2014-01-04 09:53:00,53.0,45.0,30.08,WSW,253,7.0,18.0,75,0.00,,,-99.99,,2014-01-04 15:53:00,
2014-01-04 10:03:00,53.0,45.0,30.08,WSW,253,7.0,18.0,75,0.00,,,-99.99,,2014-01-04 16:03:00,
2014-01-04 10:13:00,53.0,45.0,30.08,WSW,253,7.0,18.0,75,0.00,,,-99.99,,2014-01-04 16:13:00,
2014-01-04 10:43:00,56.0,46.0,30.07,SW,220,12.0,18.0,69,0.00,,,-99.99,,2014-01-04 16:43:00,
2014-01-04 10:53:00,56.0,46.0,30.07,SW,220,12.0,18.0,69,0.00,,,-99.99,,2014-01-04 16:53:00,
2014-01-04 11:12:00,57.0,45.0,30.06,SW,232,12.0,19.0,63,0.00,,,-99.99,,2014-01-04 17:12:00,
2014-01-04 11:22:00,57.0,45.0,30.06,SW,232,12.0,19.0,63,0.00,,,-99.99,,2014-01-04 17:22:00,
2014-01-04 11:43:00,60.0,47.0,30.05,South,177,5.0,15.0,61,0.00,,,-99.99,,2014-01-04 17:43:00,
2014-01-04 11:52:00,60.0,47.0,30.05,South,177,5.0,15.0,61,0.00,,,-99.99,,2014-01-04 17:52:00,
2014-01-04 12:22:00,63.0,46.0,30.00,SW,222,5.0,19.0,54,0.00,,,-99.99,,2014-01-04 18:22:00,
2014-01-04 12:52:00,64.0,45.0,29.97,SSW,204,6.0,18.0,50,0.00,,,-99.99,,2014-01-04 18:52:00,
2014-01-04 13:11:00,65.0,45.0,29.95,SW,222,10.0,19.0,48,0.00,,,-99.99,,2014-01-04 19:11:00,
2014-01-04 13:21:00,65.0,45.0,29.95,SW,222,10.0,19.0,48,0.00,,,-99.99,,2014-01-04 19:21:00,
2014-01-04 13:30:00,67.0,44.0,29.90,SW,232,8.0,19.0,43,0.00,,,-99.99,,2014-01-04 19:30:00,
2014-01-04 13:52:00,67.0,44.0,29.90,SW,232,8.0,19.0,43,0.00,,,-99.99,,2014-01-04 19:52:00,
2014-01-04 14:01:00,67.0,44.0,29.90,SW,232,8.0,19.0,43,0.00,,,-99.99,,2014-01-04 20:01:00,
2014-01-04 14:11:00,67.0,44.0,29.90,SW,232,8.0,19.0,43,0.00,,,-99.99,,2014-01-04 20:11:00,
2014-01-04 14:28:00,67.0,44.0,29.90,SW,232,8.0,19.0,43,0.00,,,-99.99,,2014-01-04 20:28:00,
2014-01-04 14:52:00,69.0,45.0,29.86,SW,222,8.0,15.0,42,0.00,,,-99.99,,2014-01-04 20:52:00,
2014-01-04 15:12:00,68.0,44.0,29.86,SW,222,10.0,17.0,42,0.00,,,-99.99,,2014-01-04 21:12:00,
2014-01-04 15:22:00,68.0,44.0,29.86,SW,222,10.0,17.0,42,0.00,,,-99.99,,2014-01-04 21:22:00,
2014-01-04 15:33:00,68.0,44.0,29.86,SW,222,10.0,17.0,42,0.00,,,-99.99,,2014-01-04 21:33:00,
2014-01-04 15:43:00,68.0,44.0,29.86,SW,222,10.0,17.0,42,0.00,,,-99.99,,2014-01-04 21:43:00,
2014-01-04 16:23:00,70.0,45.0,29.85,SW,232,6.0,15.0,40,0.00,,,-99.99,,2014-01-04 22:23:00,
2014-01-04 16:33:00,70.0,45.0,29.85,SW,232,6.0,15.0,40,0.00,,,-99.99,,2014-01-04 22:33:00,
2014-01-04 16:53:00,70.0,45.0,29.85,WSW,238,8.0,14.0,40,0.00,,,-99.99,,2014-01-04 22:53:00,
2014-01-04 17:22:00,68.0,44.0,29.85,SE,146,5.0,11.0,42,0.00,,,-99.99,,2014-01-04 23:22:00,
2014-01-04 17:33:00,68.0,44.0,29.85,SE,146,5.0,11.0,42,0.00,,,-99.99,,2014-01-04 23:33:00,
2014-01-04 17:53:00,66.0,44.0,29.85,South,169,4.0,10.0,45,0.00,,,-99.99,,2014-01-04 23:53:00,
2014-01-04 18:21:00,64.0,44.0,29.86,SW,219,9.0,10.0,49,0.00,,,-99.99,,2014-01-05 00:21:00,
2014-01-04 18:42:00,63.0,44.0,29.86,South,172,4.0,7.0,50,0.00,,,-99.99,,2014-01-05 00:42:00,
2014-01-04 18:52:00,63.0,44.0,29.86,South,172,4.0,7.0,50,0.00,,,-99.99,,2014-01-05 00:52:00,
2014-01-04 19:02:00,63.0,44.0,29.86,South,172,4.0,7.0,50,0.00,,,-99.99,,2014-01-05 01:02:00,
2014-01-04 19:11:00,63.0,44.0,29.86,South,172,4.0,7.0,50,0.00,,,-99.99,,2014-01-05 01:11:00,
2014-01-04 19:52:00,60.0,44.0,29.86,SW,219,4.0,10.0,55,0.00,,,-99.99,,2014-01-05 01:52:00,
2014-01-04 20:01:00,60.0,44.0,29.86,SW,219,4.0,10.0,55,0.00,,,-99.99,,2014-01-05 02:01:00,
2014-01-04 20:11:00,60.0,44.0,29.86,SW,219,4.0,10.0,55,0.00,,,-99.99,,2014-01-05 02:11:00,
2014-01-04 20:22:00,60.0,44.0,29.86,SW,219,4.0,10.0,55,0.00,,,-99.99,,2014-01-05 02:22:00,
2014-01-04 20:42:00,59.0,44.0,29.86,SSW,212,3.0,8.0,57,0.00,,,-99.99,,2014-01-05 02:42:00,
2014-01-04 20:52:00,59.0,44.0,29.86,SSW,212,3.0,8.0,57,0.00,,,-99.99,,2014-01-05 02:52:00,
2014-01-04 21:02:00,59.0,44.0,29.86,SSW,212,3.0,8.0,57,0.00,,,-99.99,,2014-01-05 03:02:00,
2014-01-04 21:53:00,57.0,44.0,29.86,SW,235,3.0,4.0,61,0.00,,,-99.99,,2014-01-05 03:53:00,
2014-01-04 22:02:00,-999.0,-99.9,29.86,SW,235,3.0,4.0,-999,0.00,,,-99.99,,2014-01-05 04:02:00,
2014-01-04 22:23:00,58.0,44.0,29.86,WSW,251,3.0,6.0,60,0.00,,,-99.99,,2014-01-05 04:23:00,
2014-01-04 22:33:00,58.0,44.0,29.86,WSW,251,3.0,6.0,60,0.00,,,-99.99,,2014-01-05 04:33:00,
2014-01-04 22:52:00,58.0,44.0,29.85,SSW,210,2.0,6.0,60,0.00,,,-99.99,,2014-01-05 04:52:00,
2014-01-04 23:22:00,58.0,44.0,29.84,WSW,245,3.0,6.0,60,0.00,,,-99.99,,2014-01-05 05:22:00,
2014-01-04 23:32:00,58.0,44.0,29.84,WSW,245,3.0,6.0,60,0.00,,,-99.99,,2014-01-05 05:32:00,
2014-01-04 23:52:00,57.0,44.0,29.83,SW,232,4.0,8.0,61,0.00,,,-99.99,,2014-01-05 05:52:00,